TimeMST,TemperatureF,Dew PointF,Humidity,Sea Level PressureIn,VisibilityMPH,Wind Direction,Wind SpeedMPH,Gust SpeedMPH,PrecipitationIn,Events,Conditions,WindDirDegrees,DateUTC
12:53 AM,24.4,3.0,40,30.05,10.0,WSW,25.3,-,N/A,,Clear,240,2013-01-04 07:53:00
1:53 AM,24.1,3.4,41,30.04,10.0,SW,23.0,-,N/A,,Clear,230,2013-01-04 08:53:00
2:53 AM,23.7,3.0,41,30.03,10.0,SW,19.6,-,N/A,,Clear,230,2013-01-04 09:53:00
3:53 AM,25.3,3.4,39,30.04,10.0,WSW,18.4,-,N/A,,Clear,240,2013-01-04 10:53:00
4:53 AM,24.8,5.0,43,30.04,10.0,SW,17.3,-,N/A,,Clear,230,2013-01-04 11:53:00
5:53 AM,25.0,3.9,41,30.05,10.0,WSW,26.5,-,N/A,,Clear,240,2013-01-04 12:53:00
6:53 AM,25.5,7.0,45,30.07,10.0,SW,18.4,-,N/A,,Clear,230,2013-01-04 13:53:00
7:53 AM,25.5,4.8,41,30.07,10.0,WSW,20.7,-,N/A,,Scattered Clouds,240,2013-01-04 14:53:00
8:53 AM,25.9,4.3,40,30.08,10.0,WSW,21.9,-,N/A,,Scattered Clouds,240,2013-01-04 15:53:00
9:23 AM,26.6,8.6,47,30.10,10.0,SW,19.6,-,N/A,,Scattered Clouds,230,2013-01-04 16:23:00
9:53 AM,27.0,10.0,49,30.10,10.0,SW,19.6,-,N/A,,Scattered Clouds,230,2013-01-04 16:53:00
10:53 AM,28.0,10.0,47,30.10,10.0,WSW,21.9,-,N/A,,Partly Cloudy,240,2013-01-04 17:53:00
11:53 AM,30.9,10.0,42,30.08,10.0,WSW,21.9,-,N/A,,Partly Cloudy,240,2013-01-04 18:53:00
12:53 PM,34.0,12.9,42,30.05,10.0,SW,16.1,-,N/A,,Clear,220,2013-01-04 19:53:00
1:53 PM,36.0,14.0,41,30.03,10.0,SW,15.0,-,N/A,,Clear,220,2013-01-04 20:53:00
2:53 PM,37.0,14.0,39,30.05,10.0,SW,16.1,-,N/A,,Clear,230,2013-01-04 21:53:00
3:53 PM,37.0,15.1,41,30.06,10.0,SW,11.5,-,N/A,,Clear,230,2013-01-04 22:53:00
4:53 PM,34.0,14.0,44,30.06,10.0,SW,12.7,-,N/A,,Clear,220,2013-01-04 23:53:00
5:53 PM,30.9,12.9,47,30.07,10.0,SW,15.0,-,N/A,,Clear,220,2013-01-05 00:53:00
6:53 PM,28.9,12.0,49,30.07,10.0,SW,15.0,-,N/A,,Clear,230,2013-01-05 01:53:00
7:53 PM,28.9,12.0,49,30.08,10.0,WSW,16.1,-,N/A,,Clear,240,2013-01-05 02:53:00
8:53 PM,28.0,12.0,51,30.07,10.0,WSW,16.1,-,N/A,,Clear,240,2013-01-05 03:53:00
9:53 PM,28.0,12.0,51,30.19,10.0,SW,12.7,-,N/A,,Clear,230,2013-01-05 04:53:00
10:53 PM,26.1,10.9,53,30.21,10.0,WSW,16.1,-,N/A,,Clear,240,2013-01-05 05:53:00
11:53 PM,28.9,12.9,51,30.20,10.0,WSW,17.3,-,N/A,,Partly Cloudy,240,2013-01-05 06:53:00